Dewpoint
65 65 65 65 65 65 65 65 66 66 66 66 66 66 66 66 66 66 66 66 67 67 67 68 68 68 67 67 67 67 67 67 67 67 67 67 66 66 66 66 66 66 66 66 66 66 66 66 66 66 66 66 66 66 66 65 65 65 65 64 64 63 63 63 62 62 62 62 62 61 61 61 61 61 61 61 61 61 61 60 61 61 62 63 63 63 63 63 63 63 63 63 63 63 63 63 63 61 61 61 61 62 62
65 64 64 63 63 63 64 64 65 65 66 66 66 66 66 65 65 65 66 66 66 66 67 67 67 67 67 67 67 67 66 66 66 66 66 66 66 66 66 66 66 66 66 66 66 66 66 66 66 65 65 65 65 65 65 64 64 64 64 63 63 63 62 62 62 62 62 61 61 61 61 61 61 61 61 61 60 60 60 60 61 62 63 63 63 63 63 63 63 63 63 63 63 63 63 62 62 61 61 61 61 61 61
64 63 63 62 62 62 63 63 63 63 64 64 64 64 64 64 65 65 65 65 66 66 66 67 67 67 66 66 66 66 66 66 66 66 66 66 66 66 65 65 65 65 66 66 66 66 65 65 65 65 65 65 64 63 63 64 64 63 63 63 62 62 62 62 62 62 61 61 61 61 61 61 61 61 61 60 60 59 60 61 62 63 63 63 62 62 62 62 62 62 62 62 62 62 62 61 61 61 61 61 61 61 61
64 63 62 61 61 61 61 61 61 61 61 61 61 61 62 63 64 64 64 64 65 66 66 66 66 66 66 66 66 66 66 66 66 66 66 65 65 65 65 65 64 65 65 65 65 65 65 65 65 65 65 64 62 63 63 63 63 63 63 62 62 62 62 62 62 61 61 61 61 61 61 61 61 60 60 60 59 59 60 61 62 62 62 62 62 62 62 61 61 61 61 61 61 61 61 60 60 60 60 60 60 61 61
64 63 62 61 61 60 60 60 60 60 60 60 60 60 61 62 63 63 63 64 65 65 65 66 66 66 66 66 66 66 66 66 65 65 65 65 65 65 64 64 62 63 63 63 64 64 64 64 64 64 63 63 62 63 63 63 63 63 62 62 62 62 62 62 62 61 61 61 61 61 61 61 61 61 60 60 59 59 60 61 62 62 62 62 61 61 61 61 61 61 61 61 61 60 59 59 60 60 60 60 60 60 59
64 63 61 61 61 60 60 59 59 59 59 60 60 60 61 61 62 62 62 63 64 65 65 65 65 65 65 65 65 65 65 65 65 65 65 64 64 63 62 61 61 61 61 61 61 61 62 63 63 62 62 62 62 63 63 63 63 62 62 62 62 62 62 62 61 61 61 61 61 61 61 61 61 61 61 61 59 58 58 59 61 61 61 61 61 61 61 61 60 60 60 60 59 58 58 59 59 59 59 59 59 59 59
64 63 62 61 61 60 60 59 59 59 59 60 60 60 61 61 61 62 62 63 64 64 64 64 65 65 65 65 65 65 64 64 64 64 64 63 62 61 60 60 60 60 60 60 60 60 61 61 61 62 62 62 62 63 63 62 62 62 62 62 62 62 62 62 61 61 61 61 61 61 61 61 61 62 61 61 59 57 56 55 56 58 60 60 61 60 60 60 59 59 59 58 57 57 57 58 58 58 59 59 59 58 58
63 63 62 61 61 61 60 59 59 59 60 60 61 61 61 61 61 62 62 63 64 64 64 64 64 64 64 64 64 64 63 63 63 62 61 61 60 59 59 59 59 59 59 59 59 58 59 59 60 61 62 62 62 62 62 62 62 62 62 62 62 62 62 61 61 61 61 61 61 61 61 61 62 61 61 60 58 56 52 49 48 52 55 57 58 59 59 59 58 57 57 56 56 56 57 57 57 58 58 58 58 58 58
63 63 62 61 61 61 60 60 60 60 60 61 61 61 61 61 61 62 63 63 63 63 64 64 64 64 63 63 63 62 62 61 61 60 59 58 58 58 58 58 58 58 57 57 57 57 57 58 60 61 62 62 62 62 62 62 62 62 62 62 62 62 62 62 61 61 61 61 61 61 61 61 61 61 59 57 56 53 47 42 42 46 49 52 54 56 57 57 56 55 55 54 55 55 55 56 57 57 57 57 58 58 58
63 62 61 61 61 61 61 60 60 60 61 61 61 61 61 61 62 62 63 63 63 63 63 63 63 62 62 62 61 61 60 60 59 58 57 57 57 57 57 57 57 57 56 56 57 58 59 61 61 61 61 61 62 62 62 62 62 62 62 62 62 62 62 61 61 61 61 61 61 61 61 61 60 59 55 52 51 45 40 38 39 42 46 48 50 52 52 53 53 53 53 53 53 54 54 55 55 56 57 57 57 57 57
62 61 61 61 61 61 61 60 60 60 61 61 61 61 61 62 62 63 63 64 63 63 63 63 62 61 61 60 60 59 58 57 56 56 56 56 56 56 55 55 55 55 55 55 57 58 60 60 59 58 58 58 59 60 61 61 61 61 61 61 61 61 61 60 60 60 61 61 61 60 60 59 57 52 45 39 39 36 35 35 37 40 43 46 48 49 50 51 52 52 52 52 52 53 53 54 54 55 55 56 56 57 57
62 61 61 60 60 60 60 61 61 61 61 61 61 61 61 62 62 63 63 63 63 63 63 62 61 60 59 58 57 57 56 55 54 54 55 54 54 54 54 53 53 53 54 55 56 57 57 57 55 55 55 55 56 57 57 57 57 58 58 59 60 60 58 57 57 57 58 58 58 57 57 54 49 41 34 29 30 31 32 34 37 40 43 45 47 48 49 50 51 51 52 52 52 52 52 52 53 53 54 54 55 55 56
61 61 60 60 60 60 61 61 61 61 61 62 62 62 62 62 63 63 63 63 63 63 62 60 58 57 57 56 55 54 53 53 53 53 53 53 52 52 52 52 52 53 53 54 54 54 54 54 53 53 53 53 53 54 54 54 55 55 56 56 56 57 56 54 55 54 55 55 55 54 50 43 35 30 27 26 27 28 30 31 34 39 42 43 45 47 48 49 50 50 51 51 51 51 51 52 52 52 52 53 53 54 55
61 61 60 60 60 60 61 61 61 62 62 62 62 62 62 63 63 63 63 63 63 62 60 57 56 55 53 52 52 52 51 52 52 52 52 51 51 52 52 52 52 52 52 52 52 52 52 52 52 52 52 52 52 52 52 52 52 53 53 52 51 52 52 52 52 52 52 51 50 46 39 32 26 25 25 25 25 25 25 27 30 34 39 43 44 46 47 48 49 49 50 50 50 50 50 50 51 51 52 52 52 53 53
61 61 60 60 60 60 61 61 62 62 63 63 63 63 63 63 63 63 63 63 63 59 57 55 54 52 51 50 49 50 50 51 51 51 51 51 51 51 51 51 51 51 51 51 51 51 51 52 52 52 51 51 51 51 51 51 51 50 50 49 48 48 49 50 50 49 47 43 40 35 30 26 24 24 24 24 23 22 22 23 25 30 34 39 43 45 47 48 48 48 49 49 49 49 49 49 50 50 50 50 51 51 52
61 61 60 60 60 61 61 62 62 63 63 63 63 63 63 63 63 63 63 62 60 57 54 53 52 51 49 48 49 49 50 50 50 50 50 50 50 51 51 51 50 50 50 50 50 50 50 51 51 50 50 50 50 49 49 49 49 48 48 48 48 48 47 46 44 41 38 34 31 28 26 25 25 24 23 23 23 22 22 23 25 29 34 38 42 45 46 47 48 48 48 48 48 48 48 48 48 48 49 49 49 50 51
61 61 60 60 61 61 61 62 62 63 63 63 63 63 63 63 63 62 61 59 56 54 52 52 51 49 48 48 48 49 50 50 49 49 50 50 50 50 50 50 49 49 48 49 49 49 50 50 49 49 49 49 48 48 48 48 48 48 48 48 47 43 41 39 36 33 31 30 28 27 26 25 24 23 23 23 23 23 23 24 25 29 33 37 41 44 46 47 47 47 48 48 48 48 48 47 47 47 47 47 48 48 49
61 61 61 60 61 61 62 62 63 63 63 63 63 62 62 62 62 61 59 55 52 51 50 50 49 48 47 48 49 49 49 49 49 49 50 50 50 50 50 49 48 48 48 48 48 49 49 49 49 48 48 48 48 48 48 48 48 47 45 43 40 37 34 33 30 29 28 28 27 27 26 25 24 24 24 24 24 24 24 24 25 27 31 35 39 43 45 46 47 47 47 47 47 47 46 46 45 45 45 45 45 46 47
61 61 61 61 61 61 62 62 63 63 63 63 62 62 61 61 61 58 54 51 50 49 49 49 48 47 48 48 48 48 49 49 49 50 50 50 49 49 49 49 48 48 48 48 48 48 48 48 48 48 48 48 48 48 47 46 44 42 39 37 34 32 31 30 29 28 28 28 27 27 26 25 25 25 25 25 25 25 25 25 25 26 28 31 35 40 43 44 45 46 46 46 46 45 45 44 43 43 43 43 43 44 45
61 61 61 61 61 61 62 62 63 63 62 62 61 61 60 59 58 54 51 48 48 48 48 49 48 48 48 48 48 48 49 49 49 49 48 48 48 48 48 48 48 48 48 48 48 48 48 48 48 48 48 48 47 45 43 40 38 36 35 34 33 31 30 29 29 29 29 28 28 27 27 26 25 25 25 25 26 26 26 27 28 27 28 29 32 36 40 43 44 44 45 44 44 43 43 42 41 40 40 41 42 43 44
61 60 61 61 61 62 62 63 63 62 62 61 60 59 58 56 53 50 48 47 47 47 48 49 48 48 48 48 48 48 49 49 48 48 48 48 48 48 48 49 48 48 48 48 48 48 48 49 49 48 47 45 43 40 38 36 35 34 33 33 32 31 30 30 30 29 29 29 28 27 26 25 25 25 25 26 26 27 27 27 28 28 27 28 30 34 37 40 43 43 43 43 43 42 41 40 39 38 39 40 41 43 44
61 60 61 61 61 62 62 63 63 62 61 60 58 57 55 52 49 47 46 47 47 48 48 48 48 47 48 48 48 49 49 48 48 48 48 48 48 48 48 49 49 49 49 49 49 49 49 48 48 46 43 41 39 37 35 34 34 33 33 32 33 32 31 30 30 30 29 29 29 28 27 26 25 25 26 26 27 27 27 27 27 27 26 26 28 31 34 38 41 41 41 41 40 39 38 37 36 36 37 39 41 42 43
60 60 61 61 62 62 62 63 62 61 60 58 56 54 52 49 47 46 46 47 48 48 48 48 48 47 48 48 49 49 49 49 48 48 48 48 48 48 49 49 49 50 50 50 49 48 48 46 45 43 40 38 36 35 34 34 35 34 33 33 33 32 32 31 31 30 30 30 29 29 28 27 27 27 27 28 28 27 27 27 26 25 25 25 26 29 31 34 37 38 39 38 38 37 35 34 34 34 36 38 40 41 43
60 61 61 62 62 62 62 62 61 60 58 56 53 51 49 47 45 45 45 47 48 48 48 48 48 48 48 48 49 49 49 48 48 48 48 48 48 49 49 50 50 51 50 50 48 47 45 43 42 39 38 36 35 34 34 34 33 33 33 33 33 33 32 31 30 30 30 29 29 29 29 29 29 29 29 29 29 28 27 27 26 25 25 25 25 26 28 30 32 34 35 35 35 34 33 32 32 33 35 37 39 40 42
61 61 61 62 62 62 62 62 61 59 56 53 50 48 46 45 44 44 45 47 48 48 49 48 48 48 48 49 49 49 48 48 48 48 48 48 48 49 50 50 50 50 50 49 47 45 43 42 41 39 37 36 35 34 34 34 32 32 33 33 33 32 31 30 29 29 29 29 29 30 30 30 30 30 30 29 29 28 27 26 25 25 24 24 24 24 25 27 29 30 32 32 32 32 31 31 31 32 34 35 38 39 41
61 61 61 62 62 62 62 61 60 57 54 51 47 45 44 44 44 45 46 47 49 50 49 49 49 48 48 48 48 48 48 48 48 48 48 49 49 50 50 50 50 50 49 48 46 44 43 42 41 39 37 36 35 34 34 34 34 34 33 33 31 31 30 30 29 29 30 30 31 30 30 30 30 30 30 29 28 27 26 25 25 25 25 24 23 23 24 25 26 27 28 30 30 30 30 30 30 31 33 34 37 39 40
61 61 62 62 62 62 62 61 59 56 52 48 45 45 45 45 46 47 48 49 51 51 50 49 49 48 48 48 48 48 48 49 49 49 49 50 51 50 50 50 49 49 48 46 44 43 42 41 40 39 37 36 35 34 34 34 34 34 33 32 30 31 31 31 30 31 31 31 31 31 31 31 32 32 32 31 30 29 27 27 27 27 26 25 25 24 24 24 24 25 26 27 28 29 29 29 30 31 32 34 36 37 38
61 62 62 62 62 62 61 61 59 56 51 48 45 46 46 47 48 49 50 51 52 51 50 49 49 48 48 48 48 49 49 49 50 50 50 50 51 50 49 49 48 47 46 44 43 42 40 39 39 38 37 36 35 34 33 33 33 34 33 32 32 32 33 33 32 32 32 32 31 31 31 31 32 32 33 33 31 30 29 28 28 26 26 25 25 25 25 24 24 24 24 25 26 27 27 28 28 29 31 33 34 35 37
62 62 62 61 62 62 62 61 59 54 50 47 46 47 48 49 49 50 51 52 52 51 50 49 48 48 48 48 48 49 50 50 51 51 51 51 51 50 49 48 47 45 43 42 41 41 40 39 38 38 37 35 34 34 33 33 34 34 34 34 34 34 34 34 33 33 33 32 32 31 31 31 31 31 31 31 30 30 30 30 30 27 26 25 25 25 25 25 24 25 24 24 25 25 25 25 26 27 29 30 32 33 34
61 61 61 61 62 62 62 60 57 52 49 48 48 48 49 50 51 52 52 52 51 50 49 48 48 48 48 48 49 50 51 51 52 52 52 51 50 49 47 46 45 43 42 41 40 40 39 39 38 38 37 36 35 34 34 34 35 35 35 35 35 35 35 34 33 33 33 33 32 32 32 32 31 30 30 30 30 30 29 29 29 28 26 26 25 25 25 25 25 25 25 25 25 24 24 24 25 25 26 28 29 30 32
61 61 61 62 62 62 61 58 54 51 49 48 49 50 50 51 52 52 51 51 51 50 48 48 48 48 49 50 51 52 52 52 52 52 52 50 49 48 46 44 43 42 41 40 39 39 39 39 38 37 37 36 35 35 35 35 34 34 35 35 36 35 35 34 33 32 32 32 31 31 31 32 32 31 30 30 29 29 28 27 26 26 26 25 25 25 25 25 25 25 25 25 25 25 24 23 23 23 24 25 26 27 29
61 61 61 62 62 62 60 57 52 51 50 49 50 51 51 52 51 51 50 50 49 48 48 48 50 50 51 52 52 52 52 52 52 51 50 49 48 47 45 43 43 40 39 39 39 39 39 38 38 37 37 37 36 36 36 35 34 34 35 36 36 35 35 34 34 33 32 31 30 30 30 31 32 32 31 30 30 28 27 27 26 26 26 25 25 25 25 25 25 25 25 25 26 25 24 22 22 22 22 23 23 24 25
61 61 61 62 62 62 60 56 52 51 50 50 51 51 51 51 51 50 50 49 48 49 50 51 52 52 53 53 53 52 52 52 51 50 49 48 46 45 44 43 42 40 39 39 38 38 38 38 38 38 37 37 37 36 36 36 36 36 36 36 36 35 35 34 34 33 32 31 30 29 29 30 30 30 30 29 28 28 27 27 26 26 26 26 26 25 25 25 25 25 25 25 25 24 23 22 22 23 24 25 24 22 22
61 61 61 61 62 61 58 55 52 51 51 51 51 51 51 50 50 49 49 49 50 52 53 54 54 54 53 53 53 52 52 51 50 49 48 47 45 43 43 42 42 40 39 38 38 37 38 38 38 38 38 38 38 38 38 38 38 38 37 37 36 35 35 34 34 34 33 32 31 30 29 29 29 29 29 28 26 26 26 26 26 27 27 27 27 26 25 24 24 24 25 25 24 23 23 23 24 25 28 28 25 22 21
61 61 61 61 60 58 55 52 51 51 51 51 51 51 50 50 50 50 50 51 53 54 54 54 54 54 53 53 52 52 51 51 50 48 47 45 44 43 42 41 41 40 39 38 38 37 37 38 38 38 38 38 38 39 38 38 37 37 37 36 36 36 35 34 34 34 33 32 31 30 30 29 29 29 29 28 27 26 26 27 27 27 28 28 27 26 25 24 23 24 24 24 23 23 23 23 24 27 29 28 25 22 21
61 60 59 58 57 54 52 51 51 51 51 51 51 51 51 51 51 51 52 53 54 54 54 54 54 53 53 53 52 52 51 50 49 48 46 44 43 42 42 42 41 40 39 39 38 37 38 38 39 39 38 38 38 38 37 36 36 36 36 36 36 36 35 34 34 33 32 32 31 30 30 29 29 28 29 30 30 28 27 27 27 28 29 29 29 28 27 26 25 25 25 25 23 22 22 23 25 27 27 25 24 23 21
58 57 56 55 54 52 51 51 51 51 51 51 51 51 51 52 52 53 53 54 54 55 55 54 54 53 53 52 52 52 51 49 48 46 44 43 42 42 42 42 41 39 39 39 38 38 38 39 39 39 39 38 37 36 35 35 35 36 37 37 36 35 34 34 32 32 31 30 29 29 28 29 29 28 28 30 32 32 30 28 28 29 30 30 30 30 30 30 31 28 26 25 25 23 22 23 25 25 24 24 24 24 23
55 54 53 52 51 50 50 50 51 51 51 51 51 52 52 52 53 53 54 54 54 54 54 53 53 53 52 52 51 51 50 49 47 46 44 43 42 42 41 40 40 39 39 38 38 38 39 39 39 39 39 37 36 35 35 35 36 37 37 37 36 35 34 33 32 32 31 30 29 30 30 30 31 30 29 28 30 30 30 29 29 30 30 30 29 28 28 29 31 29 27 25 25 24 24 24 26 23 22 24 25 25 24
51 50 50 49 49 49 50 50 50 51 51 52 52 52 52 52 53 53 54 53 53 53 53 52 52 52 52 51 51 51 50 48 47 46 44 43 42 40 40 39 39 39 39 39 39 38 39 39 39 39 38 37 36 35 35 36 37 37 38 38 36 36 35 34 34 33 33 33 34 34 34 34 34 33 30 28 27 28 29 29 30 30 31 31 29 26 25 25 27 27 25 25 25 25 26 27 26 22 22 23 24 23 23
48 48 48 48 48 49 49 50 51 51 52 52 52 52 53 53 53 53 53 53 52 52 52 52 52 52 51 51 50 50 49 48 47 45 43 42 41 39 39 39 38 38 39 39 39 38 38 38 38 38 37 37 36 36 36 36 37 37 38 38 37 36 36 35 36 37 38 39 38 36 35 34 34 34 33 31 27 28 29 29 29 30 30 30 28 26 25 24 25 25 25 25 24 25 26 27 25 22 22 23 22 23 23
48 48 48 48 48 49 50 50 51 52 52 52 53 53 53 53 53 53 53 52 52 52 52 51 51 51 51 50 50 49 48 47 45 43 42 41 40 39 39 38 37 37 38 38 38 38 37 38 39 38 37 36 35 36 36 37 38 38 38 38 38 39 39 39 39 39 39 37 34 34 33 33 33 33 34 34 32 30 30 30 30 31 29 26 25 26 26 25 25 25 25 24 22 22 25 27 26 23 22 22 22 23 24
48 48 48 48 48 49 50 51 52 52 53 53 53 53 53 53 53 53 53 52 52 52 51 51 52 52 51 50 50 48 47 46 45 43 42 40 39 38 38 37 37 37 37 38 38 38 38 37 38 37 37 37 36 37 37 38 38 38 38 39 39 38 37 37 36 35 34 34 34 33 32 32 32 32 33 34 35 33 31 30 30 32 30 27 25 27 28 28 27 25 23 21 21 21 22 24 26 24 24 24 24 23 23
48 48 48 48 48 49 50 51 52 52 53 53 53 53 53 53 53 53 52 52 52 51 51 51 51 51 51 50 49 47 46 44 43 42 41 40 39 38 37 37 37 37 37 38 37 37 37 37 35 36 36 37 38 38 38 38 39 38 38 38 39 37 36 35 34 34 34 34 34 34 34 34 34 32 31 32 33 34 32 30 32 33 32 31 29 28 27 27 26 24 22 20 20 19 19 20 21 22 22 23 24 25 24
49 48 48 49 49 50 50 51 52 52 53 53 53 53 53 53 52 52 52 51 51 51 51 51 51 51 50 48 47 46 45 43 42 41 40 39 38 38 38 38 37 37 37 37 38 37 36 36 36 36 37 37 37 38 38 38 38 38 38 37 37 36 35 34 34 34 34 34 34 34 34 34 34 34 32 30 30 31 30 30 31 34 34 33 31 29 26 23 22 23 24 25 24 21 19 18 19 21 21 21 21 24 25
50 50 50 50 51 51 51 52 52 52 53 53 53 52 52 52 52 51 51 51 51 51 51 51 51 50 49 48 47 45 44 43 42 41 40 39 38 38 37 37 37 37 37 38 38 37 36 36 37 37 37 38 38 38 38 38 38 37 37 37 37 37 36 35 34 34 34 34 34 33 33 34 34 34 33 32 30 30 30 30 30 32 33 32 30 30 28 25 23 25 25 24 22 21 20 19 19 20 19 18 19 23 23
51 51 52 52 52 52 52 52 52 52 52 52 52 52 52 51 51 51 50 50 50 51 51 51 50 49 48 47 46 44 43 43 42 42 41 40 39 39 38 37 37 38 38 38 38 37 37 37 37 37 37 37 37 37 37 37 36 37 37 37 37 37 36 35 35 35 35 35 34 34 34 34 33 34 33 33 32 31 30 30 30 30 32 33 30 30 30 30 27 24 21 20 20 19 19 19 20 20 17 15 18 22 22
52 52 52 52 52 52 52 52 52 52 52 52 52 52 51 51 50 50 50 50 50 50 50 50 49 48 48 47 45 44 43 42 42 41 40 39 39 38 38 38 38 38 38 38 38 37 37 37 37 37 37 37 37 37 37 37 36 37 37 37 38 37 36 36 36 36 36 35 35 34 34 34 34 34 34 34 33 32 31 30 29 29 30 33 33 30 30 30 25 23 21 20 19 19 19 19 21 18 15 13 16 19 22
52 52 52 52 52 52 52 52 52 52 52 52 52 51 51 50 50 50 50 49 49 49 49 49 48 48 48 47 46 45 44 43 41 40 40 40 39 38 38 38 38 38 38 38 38 37 37 37 37 37 37 36 36 36 36 37 37 38 38 38 38 38 38 37 37 36 36 35 34 34 34 34 34 34 34 34 34 34 32 30 28 28 28 30 33 32 30 28 26 25 24 22 21 21 20 20 20 17 15 13 15 17 20
52 52 52 52 52 52 52 52 52 52 52 52 52 51 51 50 50 50 50 49 49 49 49 48 48 48 48 48 47 46 45 43 42 41 41 40 39 38 38 38 38 38 38 38 37 37 37 37 37 37 36 36 36 36 37 37 37 38 38 38 39 39 38 37 37 36 35 34 34 33 34 34 34 34 34 35 35 34 32 30 28 27 27 28 29 30 30 30 28 27 28 28 27 25 23 21 19 17 16 16 17 17 18
52 52 51 51 51 52 52 52 52 52 52 52 51 51 50 50 50 50 49 49 49 49 49 48 48 48 48 48 47 46 45 44 42 41 40 39 38 37 38 38 38 38 38 37 37 37 37 37 37 36 36 36 36 36 37 38 38 38 38 39 39 39 39 37 36 35 34 34 33 33 35 36 34 34 34 35 36 33 32 30 29 28 28 29 28 28 29 30 31 29 28 28 28 27 25 23 21 19 19 18 17 17 16
52 51 51 51 51 51 52 52 52 52 52 52 51 51 51 50 50 50 50 49 49 50 49 49 48 48 48 48 47 46 45 44 42 41 39 37 36 37 37 38 38 38 38 37 37 37 37 37 36 36 36 36 36 37 37 38 38 39 39 39 39 39 39 37 36 35 34 33 33 34 35 35 34 34 35 35 35 34 32 31 30 29 29 30 29 28 28 30 32 31 30 29 28 27 26 25 24 23 21 21 21 21 18
51 51 51 51 51 51 51 52 52 52 52 52 51 51 51 50 50 50 50 50 50 50 50 49 49 49 48 48 47 47 46 44 42 40 38 36 36 36 37 37 38 38 38 37 37 37 36 36 36 36 36 37 38 37 38 38 38 39 39 39 39 39 38 36 35 34 33 33 33 34 34 34 34 34 34 34 34 34 34 33 32 30 30 30 30 29 29 29 30 29 29 28 28 28 28 27 26 25 25 25 25 23 21
51 51 50 50 50 51 51 52 52 52 52 52 51 51 50 50 50 50 50 50 50 50 50 50 50 50 49 48 47 46 45 43 41 39 37 36 35 36 36 37 38 38 38 38 37 36 36 36 36 36 36 37 38 38 38 38 38 38 38 38 39 39 38 35 34 33 32 32 33 33 33 33 33 33 33 33 34 34 35 35 33 31 30 30 30 30 30 29 28 28 27 27 26 27 27 26 26 26 26 26 25 25 23
50 50 50 50 50 50 51 51 52 52 52 51 51 50 50 50 50 50 50 50 50 50 50 50 50 49 48 48 47 46 44 43 41 39 37 35 35 35 36 37 37 38 39 38 38 37 36 36 36 36 36 37 38 38 38 37 38 38 38 38 39 39 37 35 33 32 32 32 33 33 32 32 32 32 32 32 33 34 35 35 33 32 31 31 31 30 30 30 29 28 28 27 26 26 25 25 24 25 25 25 24 24 23
50 50 50 50 50 50 51 51 51 51 51 51 50 50 50 50 50 50 50 50 50 50 50 50 49 49 48 47 46 45 44 43 41 39 37 35 34 35 35 36 37 38 39 39 38 37 37 36 37 36 36 37 37 37 37 38 37 38 38 38 40 39 36 34 33 32 32 33 33 33 33 32 32 32 31 32 32 33 34 34 33 32 32 31 31 31 30 30 30 29 28 27 26 25 24 24 23 22 23 24 23 22 22
50 50 49 49 49 50 50 51 51 51 51 50 50 50 50 50 50 50 50 50 50 50 50 50 49 49 48 47 46 45 44 43 41 39 37 35 34 34 34 35 37 38 39 39 38 38 37 37 37 36 36 37 37 37 37 37 37 37 37 38 39 38 35 34 33 33 33 33 33 33 33 33 32 32 31 31 31 32 32 31 31 31 31 31 30 30 30 29 29 30 29 28 27 26 25 24 23 22 23 24 23 22 21
50 50 49 49 49 50 50 51 51 50 50 50 50 49 49 49 50 49 49 50 50 50 50 50 49 49 48 47 46 45 44 43 41 39 38 36 34 34 35 36 37 38 39 39 39 38 38 37 37 37 37 37 37 37 37 37 36 37 37 37 38 36 34 34 33 33 33 33 34 34 34 33 33 32 31 32 32 31 31 30 30 30 30 30 30 30 29 29 29 30 29 29 28 28 27 26 25 25 25 25 25 23 22
50 49 49 49 49 49 50 50 50 50 50 49 49 49 49 49 49 49 49 49 49 49 50 50 50 49 48 47 46 45 44 43 42 40 39 36 34 35 35 36 36 38 39 39 38 38 38 38 38 37 37 37 36 37 37 37 36 37 37 37 36 35 34 34 33 33 33 34 34 34 34 34 32 32 32 32 32 31 30 30 31 31 30 30 29 29 29 28 28 30 30 30 29 29 28 27 27 27 27 27 26 25 25
49 49 49 49 48 49 49 50 50 50 49 49 49 49 49 49 49 49 49 49 49 49 49 49 49 49 48 47 47 46 45 44 43 41 39 38 35 35 34 34 35 37 38 38 38 38 38 37 37 37 37 37 36 36 36 37 37 37 37 37 35 34 34 34 33 33 34 34 34 34 34 34 32 32 32 32 31 31 31 31 31 31 30 30 30 30 29 29 29 30 30 30 30 29 28 27 28 29 28 28 27 27 27
49 49 49 49 48 48 49 49 49 49 49 49 49 49 49 49 49 49 49 49 49 49 49 49 49 49 48 48 47 46 45 44 43 42 40 39 37 35 34 34 34 36 37 38 38 38 37 37 37 37 37 37 36 36 36 36 37 36 36 36 35 34 34 34 34 34 34 34 34 34 34 34 33 33 32 32 31 32 31 31 31 31 30 30 30 30 30 30 30 30 30 30 30 29 28 28 30 30 29 29 28 28 28
49 49 48 48 48 48 48 49 48 49 48 48 49 49 49 49 49 49 49 49 49 49 49 49 50 49 48 48 47 46 45 44 43 42 41 40 39 37 36 35 35 36 37 38 37 37 37 37 37 37 37 36 36 36 36 36 36 36 36 35 34 34 34 34 34 34 34 34 34 34 34 34 33 33 33 32 32 33 32 31 31 31 31 31 31 30 31 31 31 30 29 28 29 29 29 29 30 30 29 29 28 28 28